Location: Newark
(22.3060°N, 114.2134°E)
Time: 02:54:06
(UTC+00:00)

Explorer 11/Cluster Stage 4 - Pass Details

Date: 03 August 2021
Orbit: 467 x 1256 km, 28.8° (Epoch: 27 September)

Event Time Altitude Azimuth Distance (km) Brightness Sun altitude
Rises 21:02:59 0° 211° (SSW) 3,291 - -12.3°
Exits shadow 21:04:44 - 204° (SSW) 2,771 8.9 -11.9°
Reaches altitude 10° 21:05:45 10° 198° (SSW) 2,499 8.8 -11.7°
Maximum altitude 21:10:36 25° 145° (SE) 1,881 8.6 -10.7°
Drops below altitude 10° 21:16:14 10° 94° (E) 2,949 10.6 -9.5°
Sets 21:19:47 0° 82° (E) 4,022 12.0 -8.7°
